[[{"header":{"parameterUnit":"m.s-1","parameterCategory":1,"la1":30.2991,"la2":30.254,"lo1":-89.0895,"lo2":-89.0444,"dy":0.0017,"dx":0.0017,"nx":28,"ny":28,"refTime":"2025-04-17T21:00:00:Z","depth":0,"parameterNumber":2,"parameterNumberName":"U-component_of_WINDS"},"data":[0,0,0,0,0,0,0,0,0,0,0,0,0,0,0,0,0,0,0,0,0,0,0,0,0,0,0,0,0,0,0,0,0,0,0,0,0,0,0,0,0,0,0,0,0,0,0,0,0,0,0,0,0,0,0,0,0,0,-4.8256,-4.8256,0,-4.827,-4.827,-4.827,-4.8219,-4.8218,-4.8216,-4.8215,-4.823,-4.8231,-4.8233,0,0,0,0,0,0,0,0,0,0,0,0,0,-4.8188,-4.8189,-4.8256,-4.8256,-4.8256,-4.827,-4.827,-4.827,-4.8219,-4.8218,-4.8216,-4.8214,-4.8229,-4.8231,-4.8233,0,0,0,0,0,0,0,0,0,0,0,0,0,-4.8211,-4.819,-4.8256,-4.8233,-4.8231,-4.827,-4.827,-4.827,-4.822,-4.8218,-4.8215,-4.8213,-4.8228,-4.8231,-4.8234,-4.8296,0,0,-4.8242,-4.8243,0,0,0,0,0,0,0,0,-4.821,-4.8214,-4.8236,-4.8234,-4.8232,-4.824,-4.8252,-4.8279,-4.822,-4.8224,-4.8215,-4.8212,-4.8235,-4.8237,-4.8245,-4.8297,-4.8298,-4.8242,-4.8244,-4.8245,-4.8246,0,0,0,0,0,0,0,-4.8208,-4.8213,-4.8262,-4.8236,-4.8234,-4.8222,-4.8223,-4.8257,-4.8242,-4.8223,-4.822,-4.8222,-4.8234,-4.8242,-4.8245,-4.8298,-4.8242,-4.8245,-4.8246,-4.8247,-4.8404,-4.8406,0,0,0,0,0,0,-4.821,-4.8212,-4.8261,-4.8262,-4.8215,-4.8225,-4.8226,-4.824,-4.8242,-4.824,-4.8224,-4.822,-4.8239,-4.8242,-4.8245,-4.8318,-4.8245,-4.8248,-4.8249,-4.8401,-4.8404,-4.8407,0,0,0,0,0,0,-4.8208,-4.8214,-4.826,-4.8236,-4.8241,-4.8229,-4.8245,-4.8242,-4.825,-4.8242,-4.824,-4.8235,-4.8237,-4.8241,-4.8284,-4.8318,-4.8249,-4.8251,-4.8398,-4.8402,-4.8406,-4.8465,0,0,0,0,0,0,-4.8207,-4.8214,-4.8237,-4.8237,-4.8242,-4.8298,-4.8247,-4.8244,-4.8255,-4.8249,-4.8252,-4.825,-4.8236,-4.828,-4.8287,-4.832,-4.8254,-4.8395,-4.84,-4.8405,-4.846,-4.847,-4.8479,0,0,0,0,0,-4.8204,-4.8253,-4.8238,-4.8245,-4.827,-4.83,-4.8304,-4.8286,-4.8258,-4.8281,-4.8276,-4.825,-4.8314,-4.8285,-4.8292,-4.8327,-4.8393,-4.8399,-4.8404,-4.8455,-4.8468,-4.8479,0,0,0,0,0,0,-4.8257,-4.8252,-4.8236,-4.8286,-4.8294,-4.8292,-4.832,-4.83,-4.8316,-4.831,-4.8287,-4.8289,-4.8335,-4.8336,-4.8304,-4.8389,-4.8349,-4.8356,-4.8385,-4.8397,-4.8407,-4.8404,-4.8256,0,0,0,0,0,-4.8274,-4.8299,-4.8294,-4.8339,-4.8344,-4.8332,-4.8344,-4.833,-4.8337,-4.834,-4.8339,-4.8347,-4.8369,-4.8384,-4.8404,-4.8461,-4.8461,-4.8489,-4.8499,-4.8507,-4.8512,-4.8543,-4.8555,-4.8426,-4.8426,-4.8426,0,0,-4.831,-4.8311,-4.8327,-4.8349,-4.8353,-4.8379,-4.8334,-4.8364,-4.8383,-4.8345,-4.8384,-4.8384,-4.8393,-4.8443,-4.8465,-4.8445,-4.8549,-4.8514,-4.852,-4.8521,-4.855,-4.8562,-4.8573,-4.843,-4.8429,-4.8428,0,0,-4.8388,-4.8392,-4.8429,-4.8435,-4.8443,-4.8435,-4.8445,-4.8447,-4.8445,-4.8485,-4.8457,-4.8481,-4.852,-4.8526,-4.8535,-4.8621,-4.8597,-4.8629,-4.8677,-4.8707,-4.8717,-4.8726,-4.8755,-4.8766,-4.8635,-4.8635,-4.8635,0,-4.8431,-4.8468,-4.8451,-4.8482,-4.8493,-4.8461,-4.8499,-4.8507,-4.8521,-4.8529,-4.8507,-4.8556,-4.8559,-4.8611,-4.8632,-4.8641,-4.8651,-4.8626,-4.8717,-4.8726,-4.8734,-4.8761,-4.8773,-4.8639,-4.8638,-4.8638,-4.8637,0,-4.8521,-4.8548,-4.8578,-4.8592,-4.8607,-4.8641,-4.863,-4.8647,-4.8634,-4.8629,-4.8671,-4.8675,-4.8695,-4.8708,-4.8694,-4.8758,-4.8745,-4.8721,-4.868,-4.875,-4.8775,-4.8786,-4.8644,-4.8642,-4.8641,-4.864,0,0,-4.8627,-4.8634,-4.8645,-4.8652,-4.866,-4.8681,-4.8716,-4.8736,-4.8751,-4.8764,-4.8791,-4.8827,-4.8805,-4.8815,-4.8803,-4.883,-4.8897,-4.8803,-4.8803,-4.8818,-4.8966,-4.8982,-4.8994,-4.8883,-4.8885,-4.8887,-4.8965,0,-4.8702,-4.876,-4.8747,-4.8804,-4.8828,-4.8801,-4.8832,-4.8841,-4.8839,-4.886,-4.8858,-4.8883,-4.8853,-4.8859,-4.8885,-4.8883,-4.8926,-4.8878,-4.8908,-4.8909,-4.8903,-4.9008,-4.9024,-4.9097,-4.8975,-4.8977,-4.8978,0,-4.8796,-4.8812,-4.8871,-4.8877,-4.8887,-4.8914,-4.8932,-4.8954,-4.8965,-4.8961,-4.8975,-4.8958,-4.8994,-4.8956,-4.9005,-4.8973,-4.8985,-4.8987,-4.8989,-4.8988,-4.8945,-4.9007,-4.912,-4.913,-4.8994,-4.8992,-4.8991,0,-4.8865,-4.8902,-4.8942,-4.8949,-4.8958,-4.8977,-4.8982,-4.8991,-4.9004,-4.9022,-4.903,-4.9052,-4.9063,-4.9081,-4.9071,-4.9045,-4.9121,-4.9083,-4.9119,-4.9119,-4.9132,-4.9131,-4.9246,-4.9147,-4.9146,-4.9146,-4.9146,0,-4.8947,-4.8984,-4.8973,-4.8998,-4.9039,-4.9026,-4.9067,-4.9069,-4.9078,-4.9103,-4.9083,-4.9107,-4.9094,-4.9118,-4.9112,-4.9152,-4.9159,-4.9157,-4.9154,-4.9156,-4.9156,-4.9161,-4.9155,-4.9149,-4.9148,-4.9148,-4.9147,0,-4.9029,-4.9023,-4.9065,-4.9071,-4.9074,-4.9104,-4.9109,-4.9132,-4.913,-4.9162,-4.9169,-4.9166,-4.9194,-4.9187,-4.9217,-4.9213,-4.9264,-4.9256,-4.9259,-4.9256,-4.9292,-4.9288,-4.9412,-4.9427,-4.932,-4.9321,-4.9322,0,-4.908,-4.9108,-4.9117,-4.9133,-4.9139,-4.9164,-4.9178,-4.9168,-4.9183,-4.92,-4.9221,-4.9247,-4.9266,-4.9312,-4.9312,-4.9336,-4.9327,-4.9369,-4.933,-4.9332,-4.9324,-4.9322,-4.9324,-4.9375,-4.9376,-4.9377,-4.9378,0,-4.9171,-4.9168,-4.9188,-4.921,-4.9227,-4.9243,-4.9257,-4.9272,-4.9263,-4.9282,-4.9309,-4.9325,-4.9356,-4.9382,-4.9404,-4.941,-4.9392,-4.9392,-4.9401,-4.9401,-4.9401,-4.94,-4.9277,-4.9387,-4.9386,-4.9386,-4.9385,-4.9385,-4.9237,-4.9261,-4.9271,-4.9296,-4.9306,-4.9321,-4.9343,-4.9345,-4.9367,-4.9391,-4.9385,-4.9417,-4.9429,-4.9457,-4.9466,-4.9491,-4.9475,-4.9489,-4.9492,-4.9495,-4.9498,-4.9401,-4.9496,-4.9496,-4.9495,-4.9495,-4.9495,0,-4.9325,-4.9332,-4.9355,-4.9375,-4.9395,-4.938,-4.9395,-4.9413,-4.944,-4.9454,-4.9474,-4.9507,-4.9533,-4.9537,-4.9562,-4.9581,-4.9574,-4.9588,-4.9584,-4.9586,-4.9512,-4.95,-4.9593,-4.9593,-4.9593,-4.9593,-4.9593,-4.9593,-4.9373,-4.9412,-4.9411,-4.9455,-4.9462,-4.9492,-4.9502,-4.9516,-4.9526,-4.9563,-4.9585,-4.9588,-4.9598,-4.9624,-4.9647,-4.9648,-4.9657,-4.9673,-4.9671,-4.9601,-4.9591,-4.9581,-4.957,-4.9676,-4.9676,-4.9742,-4.9743,-4.9743]},{"header":{"parameterUnit":"m.s-1","parameterCategory":1,"la1":30.2991,"la2":30.254,"lo1":-89.0895,"lo2":-89.0444,"dy":0.0017,"dx":0.0017,"nx":28,"ny":28,"refTime":"2025-04-17T21:00:00:Z","depth":0,"parameterNumber":3,"parameterNumberName":"V-component_of_WINDS"},"data":[0,0,0,0,0,0,0,0,0,0,0,0,0,0,0,0,0,0,0,0,0,0,0,0,0,0,0,0,0,0,0,0,0,0,0,0,0,0,0,0,0,0,0,0,0,0,0,0,0,0,0,0,0,0,0,0,0,0,4.0745,4.0746,0,4.0835,4.0836,4.0837,4.0881,4.0881,4.0881,4.0881,4.0967,4.097,4.0972,0,0,0,0,0,0,0,0,0,0,0,0,0,4.0608,4.061,4.0745,4.0746,4.0747,4.0835,4.0836,4.0837,4.0881,4.0881,4.0881,4.0881,4.0967,4.0969,4.0972,0,0,0,0,0,0,0,0,0,0,0,0,0,4.0679,4.0611,4.0745,4.078,4.0784,4.0835,4.0836,4.0838,4.0881,4.0881,4.0881,4.0881,4.0966,4.0969,4.0973,4.0993,0,0,4.0983,4.0984,0,0,0,0,0,0,0,0,4.0675,4.0684,4.0774,4.0778,4.0782,4.0847,4.0819,4.089,4.0881,4.0844,4.0881,4.0881,4.0927,4.0934,4.095,4.0997,4.1001,4.0983,4.0985,4.0987,4.0988,0,0,0,0,0,0,0,4.067,4.0681,4.0781,4.0775,4.078,4.079,4.08,4.0833,4.0884,4.0847,4.0851,4.0861,4.0929,4.0947,4.0953,4.1002,4.0983,4.0986,4.0988,4.099,4.1072,4.1072,0,0,0,0,0,0,4.066,4.0676,4.0778,4.0783,4.0728,4.0792,4.0804,4.0826,4.0884,4.0893,4.0861,4.0863,4.0941,4.0949,4.0956,4.0985,4.0987,4.099,4.0992,4.1072,4.1072,4.1072,0,0,0,0,0,0,4.0657,4.0669,4.0774,4.0731,4.0745,4.0795,4.0819,4.0828,4.0846,4.0894,4.0903,4.087,4.0941,4.0951,4.0984,4.0989,4.0992,4.0995,4.1072,4.1072,4.1072,4.1043,0,0,0,0,0,0,4.0653,4.0667,4.0677,4.0731,4.0747,4.0802,4.082,4.083,4.0852,4.0855,4.0905,4.0913,4.0942,4.0979,4.0988,4.0994,4.0997,4.1072,4.1072,4.1072,4.1044,4.1043,4.1041,0,0,0,0,0,4.0648,4.0663,4.0677,4.0689,4.076,4.0803,4.0812,4.0846,4.0852,4.0862,4.0893,4.0912,4.0987,4.0982,4.0992,4.0999,4.1072,4.1072,4.1072,4.1045,4.1043,4.1041,0,0,0,0,0,0,4.0606,4.0671,4.0687,4.0721,4.0756,4.081,4.0823,4.0843,4.0876,4.0877,4.0917,4.0928,4.0958,4.0982,4.0975,4.1023,4.1031,4.1033,4.1007,4.1005,4.1004,4.0998,4.1,0,0,0,0,0,4.0601,4.0632,4.0686,4.0711,4.0728,4.0772,4.0792,4.0816,4.0853,4.0868,4.0902,4.0936,4.0968,4.0988,4.1019,4.1048,4.1059,4.1057,4.1056,4.1054,4.1056,4.1074,4.1074,4.1073,4.1073,4.1073,0,0,4.059,4.063,4.0646,4.0703,4.0734,4.0764,4.0784,4.0815,4.0837,4.0872,4.0907,4.0933,4.0973,4.1005,4.102,4.1026,4.1059,4.1055,4.1053,4.1056,4.1075,4.1075,4.1075,4.1074,4.1074,4.1074,0,0,4.0587,4.062,4.0645,4.0675,4.0722,4.0752,4.0758,4.0809,4.0829,4.0864,4.0892,4.0918,4.0971,4.1,4.1021,4.103,4.1049,4.1039,4.1032,4.1049,4.1049,4.1049,4.1053,4.1054,4.104,4.104,4.104,0,4.0568,4.0616,4.0654,4.0685,4.0709,4.0744,4.077,4.0796,4.085,4.0865,4.0871,4.094,4.0969,4.1009,4.1012,4.1027,4.1035,4.1034,4.1046,4.1047,4.1047,4.1052,4.1053,4.1039,4.1039,4.1039,4.1039,0,4.059,4.0623,4.0638,4.0692,4.0717,4.0744,4.0786,4.0807,4.0829,4.0858,4.0894,4.0931,4.0972,4.0983,4.1003,4.1025,4.1027,4.1039,4.1048,4.1046,4.1051,4.1053,4.1037,4.1038,4.1038,4.1038,0,0,4.0563,4.0639,4.0644,4.067,4.0724,4.075,4.0778,4.0821,4.0838,4.0874,4.0899,4.0944,4.0956,4.098,4.1004,4.1019,4.1025,4.1029,4.103,4.1028,4.1053,4.1045,4.1047,4.1037,4.1038,4.1038,4.105,0,4.0568,4.0624,4.066,4.0701,4.0732,4.0767,4.0792,4.0827,4.0855,4.0884,4.0913,4.0946,4.0958,4.0973,4.0989,4.1021,4.1031,4.102,4.1061,4.1062,4.1051,4.1049,4.104,4.105,4.1052,4.1053,4.1053,0,4.0582,4.062,4.0665,4.0718,4.0732,4.0754,4.0797,4.0824,4.0865,4.0884,4.0912,4.0937,4.0968,4.0974,4.1017,4.1009,4.1027,4.1045,4.1046,4.1052,4.1058,4.1056,4.1053,4.1055,4.1056,4.1056,4.1056,0,4.0559,4.0621,4.0657,4.0677,4.0739,4.0754,4.078,4.0822,4.0845,4.0881,4.0897,4.0935,4.0956,4.0984,4.1018,4.1019,4.1058,4.1066,4.1074,4.1073,4.1081,4.108,4.1083,4.1091,4.1091,4.1091,4.1091,0,4.0562,4.0588,4.0648,4.0669,4.07,4.074,4.0769,4.0798,4.0834,4.0861,4.0892,4.0916,4.0959,4.0988,4.1015,4.1047,4.1056,4.1071,4.1078,4.107,4.1068,4.1083,4.1083,4.1091,4.1091,4.1091,4.1091,0,4.0542,4.0583,4.0624,4.0681,4.0695,4.0715,4.0763,4.0785,4.0815,4.0849,4.0859,4.0905,4.0941,4.0978,4.1026,4.1044,4.1075,4.1084,4.1062,4.1066,4.1073,4.1072,4.1086,4.109,4.1094,4.1094,4.1094,0,4.0542,4.0564,4.0623,4.0645,4.0672,4.0705,4.0731,4.0771,4.0795,4.0844,4.086,4.0899,4.0933,4.0989,4.1026,4.1063,4.1073,4.1075,4.1079,4.107,4.1075,4.1073,4.1076,4.1074,4.1074,4.1074,4.1074,0,4.0538,4.0558,4.0594,4.0637,4.0667,4.0702,4.0738,4.0754,4.0801,4.0826,4.0866,4.0892,4.0942,4.0981,4.1023,4.1048,4.1068,4.1072,4.1076,4.1068,4.1055,4.1064,4.106,4.1072,4.1072,4.1072,4.1072,4.1072,4.0529,4.0551,4.0597,4.0636,4.0668,4.0702,4.0726,4.076,4.0794,4.084,4.0861,4.09,4.0941,4.1,4.1025,4.1055,4.106,4.1066,4.1067,4.1068,4.1067,4.105,4.1062,4.1062,4.1062,4.1062,4.1063,0,4.0528,4.056,4.0595,4.0647,4.0678,4.0697,4.0738,4.0762,4.0797,4.0835,4.0868,4.0913,4.095,4.0991,4.103,4.1047,4.1057,4.1056,4.1056,4.1061,4.1059,4.1052,4.1047,4.1047,4.1047,4.1047,4.1047,4.1047,4.0531,4.0569,4.0594,4.0648,4.0679,4.072,4.0742,4.0773,4.0804,4.0853,4.0886,4.0913,4.0951,4.0994,4.1029,4.104,4.1053,4.1049,4.1063,4.106,4.1061,4.1062,4.1056,4.1052,4.1052,4.1063,4.1063,4.1063]}]]